This is the latest recevied weather packets stored in our database for station/object KC5DAQ-26. If no packets are shown the sender has not sent any weather packets the latest 10 day(s).
| Time | Temp. | Humidity | Pressure | Rain* | Wind** | Luminosity | Snow |
|---|---|---|---|---|---|---|---|
| 1787786104 | 35.56° C | 59% | 1015.5 hPa | 0 mm | - | 251 W/m² | - |
| 1787786045 | 35.56° C | 60% | 1015.5 hPa | 0 mm | - | 183 W/m² | - |
| 1787785982 | 35.56° C | 58% | 1015.5 hPa | 0 mm | - | 151 W/m² | - |
| 1787785922 | 35.56° C | 57% | 1015.5 hPa | 0 mm | - | 183 W/m² | - |
| 1787785862 | 35.56° C | 58% | 1015.4 hPa | 0 mm | - | 253 W/m² | - |
| 1787785804 | 35.56° C | 56% | 1015.5 hPa | 0 mm | - | 269 W/m² | - |
| 1787785744 | 35.56° C | 58% | 1015.4 hPa | 0 mm | - | 269 W/m² | - |
| 1787785683 | 35.56° C | 59% | 1015.4 hPa | 0 mm | - | 273 W/m² | - |
| 1787785624 | 35.56° C | 59% | 1015.5 hPa | 0 mm | - | 276 W/m² | - |
| 1787785562 | 35.56° C | 60% | 1015.4 hPa | 0 mm | - | 278 W/m² | - |
| 1787785504 | 35.56° C | 59% | 1015.5 hPa | 0 mm | - | 283 W/m² | - |
| 1787785444 | 35.56° C | 59% | 1015.5 hPa | 0 mm | - | 287 W/m² | - |
| 1787785382 | 35.56° C | 59% | 1015.4 hPa | 0 mm | - | 295 W/m² | - |
| 1787785322 | 35° C | 58% | 1015.4 hPa | 0 mm | - | 301 W/m² | - |
| 1787785262 | 35° C | 60% | 1015.5 hPa | 0 mm | - | 306 W/m² | - |
| 1787785204 | 35° C | 60% | 1015.5 hPa | 0 mm | - | 311 W/m² | - |
| 1787785143 | 35° C | 60% | 1015.5 hPa | 0 mm | - | 317 W/m² | - |
| 1787785082 | 35° C | 59% | 1015.5 hPa | 0 mm | - | 324 W/m² | - |
| 1787785023 | 35° C | 62% | 1015.5 hPa | 0 mm | - | 341 W/m² | - |
| 1787784962 | 35° C | 58% | 1015.5 hPa | 0 mm | - | 322 W/m² | - |
| 1787784904 | 35° C | 60% | 1015.5 hPa | 0 mm | - | 267 W/m² | - |
| 1787784843 | 35° C | 56% | 1015.5 hPa | 0 mm | - | 267 W/m² | - |
| 1787784784 | 35° C | 57% | 1015.6 hPa | 0 mm | - | 178 W/m² | - |
| 1787784722 | 35° C | 58% | 1015.5 hPa | 0 mm | - | 151 W/m² | - |
| 1787784661 | 35.56° C | 57% | 1015.6 hPa | 0 mm | - | 148 W/m² | - |
* Rain latest hour (hover to see other rain measurements)
** Current wind speed in m/s (hover to see current wind gust speed)